Terminal Aerodrome Forecast
Issued by NWS

Home | Current Version | Previous Version | Text Only | Print | Product List | Glossary On
Versions: 1 2 3 4 5 6 7 8 9 10 11 12 13 14 15 16 17 18
000
FTUS46 KSEW 182300
TAFPAE
TAF
KPAE 182330Z 1900/1924 15006G16KT P6SM -RA BKN035 OVC045
     FM190500 15015G25KT 5SM -RA BR OVC015 WS020/20045KT
     FM190800 18015G25KT P6SM -SHRA SCT025 BKN035
     FM191600 18010KT P6SM VCSH SCT025 BKN035=

USA.gov is the U.S. government's official web portal to all federal, state and local government web resources and services.